Regional Weather Roundup
Issued by NWS Goodland, KS

Home | Current Version | Previous Version | Graphics & Text | Print | Product List | Glossary On
Versions: 1 2 3 4 5 6 7 8 9 10 11 12 13 14 15 16 17 18 19 20 21 22 23 24 25 26 27 28 29 30 31 32 33 34 35 36 37 38 39 40 41 42 43 44 45 46 47 48 49 50
571
ASUS43 KGLD 231059
RWRGLD

GOODLAND FORECAST AREA HOURLY WEATHER ROUNDUP
NATIONAL WEATHER SERVICE GOODLAND KS
400 AM MST THU FEB 23 2017

...OFFICIAL OBSERVATIONS...

CITY           SKY/WX    TMP DP  RH WIND       PRES   REMARKS
GOODLAND KS    CLEAR     32  27  81 NE8       29.62S
HILL CITY KS   CLOUDY    43  36  76 NE16G24   29.67S
IMPERIAL NEB   CLOUDY    33  30  88 NE22      29.70F
MCCOOK NEB     CLOUDY    39  36  89 NE21G31   29.69F
AKRON CO       CLOUDY    32  30  92 E20G26    29.62F FOG
BURLINGTON CO  CLEAR     32  25  75 NE10      29.61S
LIMON CO       CLOUDY    19  17  92 NW6       29.59F
$$

...UNOFFICIAL OBSERVATIONS...

CITY           SKY/WX    TMP DP  RH WIND       PRES   REMARKS
LENORA KS        N/A     41  32  70 NE12G20     N/A
NORTON KS      CLOUDY    39  32  75 NE23G32   29.67F
SHARON SPRINGS   N/A     40  29  65 E12         N/A
TRENTON NEB      N/A     37  32  82 NE12        N/A
KIT CARSON CO    N/A     37  23  58 MISG        N/A
YUMA CO        CLOUDY    32  32 100 E21       29.64F WCI  20
$$




USA.gov is the U.S. government's official web portal to all federal, state and local government web resources and services.